Regional Weather Roundup
Issued by NWS Cleveland, OH

Home | Current Version | Previous Version | Graphics & Text | Print | Product List | Glossary On
Versions: 1 2 3 4 5 6 7 8 9 10 11 12 13 14 15 16 17 18 19 20 21 22 23 24 25 26 27 28 29 30 31 32 33 34 35 36 37 38 39 40 41 42 43 44 45 46 47 48 49 50
000
ASUS41 KCLE 280110
RWRCLE
OHIO REGIONAL WEATHER ROUNDUP
NATIONAL WEATHER SERVICE WILMINGTON, OH
900 PM EDT WED MAY 27 2015

NOTE: "FAIR" INDICATES FEW OR NO CLOUDS BELOW 12,000 FEET WITH NO
SIGNIFICANT WEATHER AND/OR OBSTRUCTIONS TO VISIBILITY.

OHZ001>008-015>018-024>027-034-035-043-044-280200-
   NORTHWEST OHIO

CITY           SKY/WX    TMP DP  RH WIND       PRES   REMARKS
DEFIANCE       MOCLDY    70  62  76 CALM      30.03R
FINDLAY        CLOUDY    68  64  87 S6        30.04S
TOLEDO EXPRESS MOCLDY    68  65  90 S5        30.03R
TOLEDO EXEC    CLOUDY    68  63  84 SW8       30.04R
LIMA           CLOUDY    70  64  81 CALM      30.05F
$$

OHZ009>014-019>023-028>033-038-089-280200-
   NORTHEAST OHIO

CITY           SKY/WX    TMP DP  RH WIND       PRES   REMARKS
CLE-HOPKINS    LGT RAIN  64  62  93 S10       30.09R FOG
CLE-LAKEFRONT  RAIN      66  62  87 S9        30.05S FOG
CUY CO. ARPT   CLOUDY    66  63  88 SW14      30.09R
LORAIN-ELYRIA  LGT RAIN  64  64 100 S10       30.06S
ASHTABULA      LGT RAIN  64  61  90 W6        30.09R
AKRON-CANTON   CLOUDY    70  58  65 NW16G29   30.09R
WOOSTER        HVY RAIN  64  62  93 W12G23    30.10R FOG
MANSFIELD      CLOUDY    64  63  96 CALM      30.07F
YOUNGSTOWN     MOCLDY    69  57  65 N6        30.08R
$$

OHZ042-051>053-060>062-070>072-077>081-280200-
  SOUTHWEST OHIO

CITY           SKY/WX    TMP DP  RH WIND       PRES   REMARKS
CINC-COVINGTON CLOUDY    69  60  73 S13       30.12R
CINC-LUNKEN    MOCLDY    69  60  73 SW9       30.12R
HAMILTON       MOCLDY    74  59  59 SW10      30.10R
DAYTON         CLOUDY    76  61  59 SW17G24   30.08R
WRIGHT-PAT AFB CLOUDY    75  61  60 SW16G23   30.07R
DAYTON GENERAL MOCLDY    74  59  59 SW12G28   30.09R
WILMINGTON     MOCLDY    71  55  56 SW21      30.10R
$$

OHZ036-037-039>041-045>050-054>059-063>069-073>076-082>088-280200-
  CENTRAL AND SOUTHEAST OHIO

CITY           SKY/WX    TMP DP  RH WIND       PRES   REMARKS
COLUMBUS       MOCLDY    77  62  59 SW13      30.06S
OSU AIRPORT    MOCLDY    77  61  57 SW16G24   30.06R
BOLTON FIELD   NOT AVBL
RICKENBACK AFB MOCLDY    76  62  63 S13G18    30.06S
NEWARK         PTCLDY    76  62  62 SW8       30.07R
MARION         LGT RAIN  68  64  87 NW6       30.06F
LANCASTER      PTCLDY    76  62  62 S8        30.08S
ZANESVILLE     PTCLDY    75  62  64 S7        30.08S
NEW PHILLY     PTCLDY    78  63  59 S6        30.07F
$$


USA.gov is the U.S. government's official web portal to all federal, state and local government web resources and services.